User: anonymous   Login
Location: ????? ????
(37.9717°N, 23.4051°E)
Time: 04:06:25
(UTC+00:00)
Language:

CZ-4B R/B - Orbit

View from above orbital plane
View from above orbital plane
View from above satellite
View from above satellite

Ground track
Ground track

The orbit data is extracted from the following two-line orbital elements,

1 27432U 02024C   24164.71366529  .00000094  00000-0  71737-4 0  9994
2 27432  98.9751 207.0131 0050694  24.8741  82.9666 14.14326362139476
Epoch (UTC): 12 June 2024 17:07:40
Eccentricity: 0.0050694
inclination: 98.9751°
perigee height: 808 km
apogee height: 881 km
right ascension of ascending node: 207.0131°
argument of perigee: 24.8741°
revolutions per day: 14.14326362
mean anomaly at epoch: 82.9666°
orbit number at epoch: 13947

The dashed part of the orbit path shows where the satellite is in the earth's shadow,  

DLR